ALCOMSAT 1 (43039 NORAD) Tracking and Keplerian Element Data

This shows tracking and keplerian element data for the satellite.

Feedback or suggestion? Click here.




ElementValue
Catalog43039
NameALCOMSAT 1
Epoch Orbit1399
Epoch Day269.8302858
Epoch Year2021
RAAN221.3713
Inclination0.0295
Eccentricity0.000216
Argument of Perigee324.2083
Mean Anonmoly94.386
Mean Motion1.0027192
Decay Rate-1.87E-06
L11 43039U 17078A 21269.83028580 -.00000187 00000-0 00000-0 0 9993
L22 43039 0.0295 221.3713 0002160 324.2083 94.3860 1.00271920 13991

Live tracking and technical data element details for ALCOMSAT 1 (NORAD 43039). ALCOMSAT 1 can be tracked NOW for your location showing map with azimuth and elevation plus other details from your city location.

Track the satellite on the map from your city or location and see movement details for azimuth, elevation, latitude, longitude, range, height, and movement on the map or in text.







IsCatalogInMostPopularTable: catalog: 43039, numindb: 594
Update: records affected: 1



GetName: 43039 ALCOMSAT 1

Hit Count: updated at: Tue, 28 Sep 2021 16:07:38 GMT